Voltar ao catálogo

STARLINK-37892

AtivoComunicaçõesSSO
NORAD 69485·PAYLOAD·🇺🇸 United States

Lançado Jun 11, 2026 de Vandenberg Space Force Base

Loading…

Próximas Passagens (próximas 24 horas)

TLE

AtualizadoSource: CelesTrak SupGP

Época: Sep 14, 2026, 22:38 UTC

1 69485C 26131H   26257.94354167  .00038814  00000+0  12050-2 0  2576
2 69485  97.2838 278.8642 0001273  94.5184 289.0822 15.33416203    12

Acompanhe STARLINK-37892 em tempo real com AllMySat

Download on the App Store